Date String (YYYY-MM-DD hh:mm:ss) UTC,Instrument flags,Ambient pressure (hPa),Sample flow (lpm),Bypass flow (lpm),Sample temperature (°C),Ambient temperature (°C),ASC tube jacket temperature (°C),LED temperature (°C),Box temperature (°C),Sample RH (%),Span deviation,Mass concentration (μg/m³),Mass concentration (μg/m³),Mass concentration (μg/m³)
DateTimeUTC,F1_M11,P_M11,Q1_M11,Q2_M11,T1_M11,T2_M11,T3_M11,T4_M11,T5_M11,U1_M11,ZSPAN_M11,X0_M11,X2_M11,X1_M11
2021-08-28 01:00:00,,0823.4,4.99,0.00,29.1,27.8,00.0,38.1,31.0,22.1,0003.0,0012.35,0004.86,0004.34
2021-08-28 01:01:00,,0823.4,5.00,0.00,29.2,28.1,00.0,38.1,31.1,21.4,0002.9,0012.51,0004.87,0004.35
2021-08-28 01:02:00,,0823.4,5.01,0.00,29.2,28.3,00.0,38.2,31.2,20.1,0003.0,0012.43,0004.86,0004.35
2021-08-28 01:03:00,,0823.4,5.01,0.00,29.3,28.4,00.0,38.2,31.2,20.2,0003.1,0011.62,0004.86,0004.36
2021-08-28 01:04:00,,0823.4,5.00,0.00,29.3,27.1,00.0,38.2,30.9,20.6,0003.1,0012.27,0004.87,0004.36
2021-08-28 01:05:00,,0823.4,5.00,0.00,29.1,25.6,00.0,38.2,30.5,20.4,0002.8,0012.69,0004.88,0004.36
2021-08-28 01:06:00,,0823.4,4.99,0.00,29.0,25.7,00.0,38.2,30.5,20.5,0002.4,0011.83,0004.86,0004.37
2021-08-28 01:07:00,,0823.3,5.00,0.00,29.0,26.1,00.0,38.1,30.5,20.4,0002.0,0011.99,0004.88,0004.38
2021-08-28 01:08:00,,0823.3,5.01,0.00,28.9,26.6,00.0,38.1,30.6,20.6,0001.7,0012.03,0004.86,0004.37
2021-08-28 01:09:00,,0823.3,5.01,0.00,29.0,27.1,00.0,38.1,30.7,19.9,0001.6,0012.28,0004.83,0004.36
2021-08-28 01:10:00,,0823.4,5.00,0.00,29.0,27.5,00.0,38.1,30.9,19.8,0001.5,0012.75,0004.82,0004.36
2021-08-28 01:11:00,,0823.3,4.99,0.00,29.1,27.8,00.0,38.1,31.0,19.7,0001.3,0012.86,0004.82,0004.35
2021-08-28 01:12:00,,0823.4,5.00,0.00,29.1,28.1,00.0,38.1,31.1,19.8,0001.1,0012.59,0004.84,0004.35
2021-08-28 01:13:00,,0823.3,5.00,0.00,29.2,28.3,00.0,38.1,31.2,19.6,0001.0,0013.27,0004.86,0004.35
2021-08-28 01:14:00,,0823.4,5.00,0.00,29.3,28.5,00.0,38.2,31.2,19.5,0000.8,0013.60,0004.88,0004.36
2021-08-28 01:15:00,,0823.4,5.00,0.00,29.3,27.5,00.0,38.2,31.0,19.5,0000.9,0013.72,0004.91,0004.36
2021-08-28 01:16:00,,0823.4,5.01,0.00,29.1,25.9,00.0,38.2,30.6,19.5,0001.3,0014.10,0004.90,0004.36
2021-08-28 01:17:00,,0823.3,5.01,0.00,29.0,25.7,00.0,38.1,30.5,19.5,0001.5,0015.55,0004.89,0004.35
2021-08-28 01:18:00,,0823.4,4.99,0.00,29.0,26.1,00.0,38.1,30.6,19.7,0001.7,0016.79,0004.86,0004.33
2021-08-28 01:19:00,,0823.4,5.01,0.00,29.0,26.5,00.0,38.1,30.6,19.9,0001.8,0016.80,0004.85,0004.32
2021-08-28 01:20:00,,0823.4,4.99,0.00,29.0,27.0,00.0,38.1,30.7,20.0,0001.4,0016.41,0004.86,0004.32
2021-08-28 01:21:00,,0823.4,5.01,0.00,29.0,27.4,00.0,38.1,30.9,19.9,0001.4,0015.76,0004.88,0004.32
2021-08-28 01:22:00,,0823.4,4.99,0.00,29.1,27.7,00.0,38.1,31.0,20.8,0001.4,0015.19,0004.87,0004.33
2021-08-28 01:23:00,,0823.4,4.99,0.00,29.1,28.0,00.0,38.1,31.1,20.6,0001.3,0014.50,0004.86,0004.34
2021-08-28 01:24:00,,0823.5,5.00,0.00,29.2,28.2,00.0,38.1,31.1,20.3,0001.4,0013.75,0004.86,0004.35
2021-08-28 01:25:00,,0823.4,4.99,0.00,29.2,28.4,00.0,38.1,31.2,20.4,0001.5,0013.69,0004.86,0004.35
2021-08-28 01:26:00,,0823.4,5.00,0.00,29.3,28.5,00.0,38.2,31.2,20.4,0001.0,0013.15,0004.85,0004.35
2021-08-28 01:27:00,,0823.4,5.00,0.00,29.3,27.0,00.0,38.2,30.8,20.2,0000.5,0011.93,0004.87,0004.35
2021-08-28 01:28:00,,0823.4,5.00,0.00,29.1,25.6,00.0,38.2,30.4,20.2,0000.3,0010.64,0004.87,0004.35
2021-08-28 01:29:00,,0823.4,5.01,0.00,29.0,25.6,00.0,38.2,30.4,20.5,0000.1,0009.36,0004.91,0004.37
2021-08-28 01:30:00,,0823.4,5.00,0.00,28.9,26.1,00.0,38.1,30.5,20.7,0000.1,0009.32,0004.95,0004.38
2021-08-28 01:31:00,,0823.5,4.98,0.00,28.9,26.6,00.0,38.1,30.6,21.0,0000.4,0009.33,0004.93,0004.37
2021-08-28 01:32:00,,0823.5,5.00,0.00,29.0,27.0,00.0,38.1,30.7,21.4,0000.4,0009.54,0004.90,0004.36
2021-08-28 01:33:00,,0823.6,5.01,0.00,29.0,27.4,00.0,38.1,30.9,21.1,0000.7,0010.21,0004.93,0004.35
2021-08-28 01:34:00,,0823.6,5.00,0.00,29.0,27.7,00.0,38.1,30.9,21.0,0000.9,0010.55,0004.91,0004.34
2021-08-28 01:35:00,,0823.6,5.00,0.00,29.1,28.0,00.0,38.1,31.0,20.4,0000.9,0011.74,0004.88,0004.31
2021-08-28 01:36:00,,0823.6,5.00,0.00,29.2,28.2,00.0,38.1,31.1,20.8,0000.8,0011.52,0004.85,0004.29
2021-08-28 01:37:00,,0823.6,4.99,0.00,29.2,28.4,00.0,38.1,31.2,20.8,0001.0,0011.63,0004.82,0004.28
2021-08-28 01:38:00,,0823.6,5.00,0.00,29.3,28.6,00.0,38.2,31.3,20.4,0000.9,0012.59,0004.79,0004.27
2021-08-28 01:39:00,,0823.7,5.00,0.00,29.3,28.4,00.0,38.2,31.2,20.7,0001.0,0012.57,0004.80,0004.27
2021-08-28 01:40:00,,0823.7,5.00,0.00,29.3,26.7,00.0,38.2,30.8,20.1,0001.0,0012.87,0004.78,0004.26
2021-08-28 01:41:00,,0823.6,5.00,0.00,29.1,25.5,00.0,38.2,30.5,20.0,0000.7,0013.08,0004.79,0004.26
2021-08-28 01:42:00,,0823.6,5.01,0.00,29.0,25.7,00.0,38.2,30.5,20.3,0000.6,0012.97,0004.80,0004.27
2021-08-28 01:43:00,,0823.6,4.99,0.00,29.0,26.2,00.0,38.1,30.6,21.3,0000.5,0012.78,0004.79,0004.26
2021-08-28 01:44:00,,0823.6,4.99,0.00,29.0,26.7,00.0,38.1,30.7,21.4,0000.2,0012.45,0004.77,0004.26
2021-08-28 01:45:00,,0823.6,5.01,0.00,29.0,27.1,00.0,38.1,30.8,21.7,0000.4,0012.34,0004.77,0004.27
2021-08-28 01:46:00,,0823.7,4.99,0.00,29.0,27.5,00.0,38.1,30.9,21.4,0000.6,0011.15,0004.76,0004.27
2021-08-28 01:47:00,,0823.7,5.01,0.00,29.1,27.8,00.0,38.1,31.0,21.4,0000.3,0011.04,0004.76,0004.29
2021-08-28 01:48:00,,0823.7,5.00,0.00,29.2,28.1,00.0,38.1,31.1,21.4,0000.2,0011.20,0004.81,0004.31
2021-08-28 01:49:00,,0823.7,5.01,0.00,29.2,28.3,00.0,38.2,31.2,20.9,0000.6,0010.43,0004.85,0004.32
2021-08-28 01:50:00,,0823.7,4.99,0.00,29.3,28.5,00.0,38.2,31.2,20.3,0000.6,0010.08,0004.80,0004.33
2021-08-28 01:51:00,,0823.7,5.00,0.00,29.3,28.5,00.0,38.2,31.3,20.5,0000.6,0009.67,0004.78,0004.32
2021-08-28 01:52:00,,0823.7,5.01,0.00,29.3,27.1,00.0,38.2,30.9,20.5,0000.7,0009.37,0004.77,0004.32
2021-08-28 01:53:00,,0823.7,5.00,0.00,29.1,25.6,00.0,38.2,30.4,20.6,0000.8,0009.53,0004.76,0004.32
2021-08-28 01:54:00,,0823.7,5.00,0.00,29.0,25.6,00.0,38.2,30.4,21.1,0000.9,0009.53,0004.77,0004.33
2021-08-28 01:55:00,,0823.7,5.00,0.00,28.9,26.0,00.0,38.1,30.5,21.3,0001.0,0010.15,0004.81,0004.33
2021-08-28 01:56:00,,0823.7,5.00,0.00,28.9,26.5,00.0,38.1,30.6,21.1,0000.9,0010.29,0004.85,0004.34
2021-08-28 01:57:00,,0823.8,5.00,0.00,29.0,27.0,00.0,38.1,30.7,20.5,0001.2,0010.26,0004.86,0004.35
2021-08-28 01:58:00,,0823.8,5.01,0.00,29.0,27.4,00.0,38.1,30.8,20.6,0001.8,0010.29,0004.88,0004.35
2021-08-28 01:59:00,,0823.8,4.99,0.00,29.1,27.7,00.0,38.1,30.9,19.9,0002.0,0010.44,0004.84,0004.34
